FW5910 Weather Reports


time (UTC)temp
F
wind
direction
speed
knots
gust
knots
rain 1hr
in
rain 24hr
in
rain mn
in
humidity
%
barometer
mb
20260831112307 53 237 0.0 0.0 0.00 0.02 0.00 83 1017.1
20260831111803 53 237 0.0 0.0 0.00 0.02 0.00 83 1016.9
20260831111303 53 237 0.0 0.0 0.00 0.02 0.00 85 1016.9
20260831110308 53 237 0.0 0.0 0.00 0.02 0.00 83 1016.8
20260831105804 53 237 0.0 0.0 0.00 0.02 0.00 84 1016.8
20260831104804 53 237 0.0 0.0 0.00 0.02 0.00 84 1016.8
20260831104304 53 241 0.0 0.0 0.00 0.02 0.00 85 1016.8
20260831103804 53 241 0.0 0.0 0.00 0.02 0.00 87 1016.8
20260831103303 53 256 0.0 0.0 0.00 0.02 0.00 85 1016.7
20260831102802 53 256 0.0 0.0 0.00 0.02 0.00 85 1016.6
20260831102306 53 256 0.0 0.0 0.00 0.02 0.00 86 1016.6
20260831101806 53 256 0.0 0.0 0.00 0.02 0.00 86 1016.6
20260831100307 54 256 0.0 0.0 0.00 0.02 0.00 84 1016.4
20260831095809 54 256 0.0 0.0 0.00 0.02 0.00 85 1016.4
20260831095309 54 256 0.0 0.0 0.00 0.02 0.00 84 1016.4
20260831094310 54 256 0.0 0.0 0.00 0.02 0.00 84 1016.4
20260831093308 54 256 0.0 0.0 0.00 0.02 0.00 84 1016.5
20260831092804 54 256 0.0 0.0 0.00 0.02 0.00 83 1016.4
20260831091757 54 256 0.0 0.0 0.00 0.02 0.00 82 1016.4
20260831091252 54 256 0.0 0.0 0.00 0.02 0.00 82 1016.5
20260831090246 54 256 0.0 0.0 0.00 0.02 0.00 81 1016.4
20260831085748 54 256 0.0 0.0 0.00 0.02 0.00 82 1016.4
20260831085245 54 256 0.0 0.0 0.00 0.02 0.00 82 1016.4
20260831084745 54 256 0.0 0.0 0.00 0.02 0.00 82 1016.4
20260831084241 54 11 0.0 0.0 0.00 0.02 0.00 81 1016.4
20260831083742 54 11 0.0 0.0 0.00 0.02 0.00 82 1016.5
20260831083237 54 11 0.0 0.0 0.00 0.02 0.00 81 1016.5
20260831082736 54 11 0.0 0.0 0.00 0.02 0.00 81 1016.5
20260831082233 54 11 0.0 0.0 0.00 0.02 0.00 81 1016.4
20260831081733 54 11 0.0 0.0 0.00 0.02 0.00 82 1016.3
20260831080731 54 11 0.0 0.0 0.00 0.02 0.00 83 1016.3
20260831080233 54 11 0.0 0.0 0.00 0.02 0.00 82 1016.2
20260831074733 54 11 0.0 0.0 0.00 0.02 0.00 82 1016.2
20260831074230 54 11 0.0 0.0 0.00 0.02 0.00 82 1016.2
20260831073734 54 11 0.0 0.0 0.00 0.02 0.00 82 1016.2
20260831073230 54 11 0.0 0.0 0.00 0.02 0.00 82 1016.2
20260831072738 54 11 0.0 0.0 0.00 0.02 0.00 81 1016.2
20260831072233 54 11 0.0 0.0 0.00 0.02 0.00 81 1016.2
20260831071732 54 11 0.0 0.0 0.00 0.02 0.00 80 1016.2
20260831071232 54 11 0.0 0.0 0.00 0.02 0.00 81 1016.1
20260831070735 54 11 0.0 0.0 0.00 0.02 0.00 80 1016.2
20260831065732 55 11 0.0 0.9 0.00 0.02 0.00 80 1016.3
20260831065231 55 273 0.0 0.9 0.00 0.02 0.00 79 1016.3
20260831064732 55 273 0.0 0.9 0.00 0.02 0.00 78 1016.3
20260831064232 55 273 0.0 0.9 0.00 0.02 0.00 78 1016.3
20260831063730 55 273 0.0 0.9 0.00 0.02 0.00 78 1016.3
20260831063233 55 273 0.0 0.9 0.00 0.02 0.00 76 1016.4
20260831062731 55 273 0.0 0.9 0.00 0.02 0.00 75 1016.3
20260831062232 55 273 0.0 0.9 0.00 0.02 0.00 74 1016.3
20260831061230 57 273 0.0 0.9 0.00 0.02 0.00 74 1016.4
20260831060731 57 165 0.0 0.0 0.00 0.02 0.00 70 1016.4
20260831060235 57 165 0.0 0.0 0.00 0.02 0.00 69 1016.4
20260831055735 57 165 0.0 0.0 0.00 0.02 0.02 68 1016.4
20260831055231 57 165 0.0 0.0 0.00 0.02 0.02 68 1016.4
20260831054733 57 164 0.0 0.0 0.00 0.02 0.02 69 1016.5
20260831054231 57 165 0.0 0.0 0.00 0.02 0.02 71 1016.4
20260831053731 57 164 0.0 0.0 0.00 0.02 0.02 72 1016.5
20260831053234 57 200 0.0 0.0 0.00 0.02 0.02 71 1016.5
20260831052731 57 200 0.0 0.0 0.00 0.02 0.02 70 1016.5
20260831051730 57 200 0.0 0.0 0.00 0.02 0.02 68 1016.6
20260831051232 57 200 0.0 0.0 0.00 0.02 0.02 70 1016.7
20260831050731 57 200 0.0 0.0 0.00 0.02 0.02 70 1016.8
20260831050234 57 200 0.0 0.0 0.00 0.02 0.02 70 1016.8
20260831045731 57 184 0.0 0.0 0.00 0.02 0.02 71 1016.8
20260831044733 57 228 0.0 0.0 0.00 0.02 0.02 71 1016.8
20260831043735 57 228 0.0 0.0 0.00 0.02 0.02 73 1016.8
20260831043230 57 229 0.0 0.0 0.00 0.02 0.02 73 1016.8
20260831041727 57 112 0.0 0.0 0.00 0.02 0.02 74 1016.7
20260831041225 58 112 0.0 0.9 0.00 0.02 0.02 73 1016.6
20260831040724 57 112 0.0 0.9 0.00 0.02 0.02 73 1016.6
20260831040224 57 112 0.0 0.9 0.00 0.02 0.02 71 1016.5
20260831035723 56 113 0.0 0.9 0.00 0.02 0.02 71 1016.4
20260831035226 56 113 0.0 0.0 0.00 0.02 0.02 72 1016.5
20260831034723 56 113 0.0 0.0 0.00 0.02 0.02 73 1016.5
20260831034224 56 113 0.0 0.0 0.00 0.02 0.02 72 1016.4
20260831033220 57 113 0.0 0.9 0.00 0.02 0.02 75 1016.5
20260831032719 57 112 0.0 0.9 0.00 0.02 0.02 76 1016.4
20260831032216 57 112 0.0 0.9 0.00 0.02 0.02 75 1016.5
20260831031715 57 112 0.0 0.9 0.00 0.02 0.02 75 1016.5
20260831031217 57 113 0.0 0.9 0.00 0.02 0.02 73 1016.5
20260831030714 57 111 0.0 0.9 0.00 0.02 0.02 73 1016.4
20260831030210 57 111 0.0 0.9 0.00 0.02 0.02 72 1016.3
20260831025708 57 111 0.0 0.9 0.00 0.02 0.02 71 1016.2
20260831024706 57 147 0.0 0.9 0.00 0.02 0.02 70 1016.1
20260831024209 57 147 0.0 0.9 0.00 0.02 0.02 70 1016.0
20260831023709 57 147 0.0 0.0 0.00 0.02 0.02 73 1016.0
20260831023205 57 147 0.0 0.0 0.00 0.02 0.02 69 1016.0
20260831022704 57 147 0.0 0.9 0.00 0.02 0.02 69 1015.9
20260831022204 57 147 0.0 0.9 0.00 0.02 0.02 72 1015.7
20260831021702 58 147 0.0 0.0 0.00 0.02 0.02 72 1015.6
20260831021203 58 147 0.0 0.9 0.00 0.02 0.02 72 1015.7
20260831020704 58 147 0.0 0.9 0.00 0.02 0.02 74 1015.6
20260831020203 58 99 0.0 0.0 0.00 0.02 0.02 69 1015.6
20260831015703 59 99 0.0 0.0 0.00 0.02 0.02 70 1015.6
20260831015203 59 99 0.0 0.9 0.00 0.02 0.02 67 1015.5
20260831014704 59 99 0.0 0.9 0.00 0.02 0.02 65 1015.5
20260831014204 59 99 0.0 0.9 0.00 0.02 0.02 65 1015.5
20260831013703 59 100 0.0 1.7 0.00 0.02 0.02 68 1015.5
20260831013203 59 99 0.0 1.7 0.00 0.02 0.02 67 1015.6
20260831012702 60 106 0.9 1.7 0.00 0.02 0.02 66 1015.6
20260831012202 60 96 0.9 1.7 0.00 0.02 0.02 63 1015.5
20260831011702 60 91 0.9 1.7 0.00 0.02 0.02 64 1015.6
20260831011203 60 78 0.9 1.7 0.00 0.02 0.02 64 1015.7
20260831010702 60 17 0.0 0.9 0.00 0.02 0.02 62 1015.6
20260831010202 60 78 0.0 0.9 0.00 0.02 0.02 64 1015.5
20260831005703 60 78 0.0 0.9 0.00 0.02 0.02 64 1015.5
20260831005204 60 78 0.0 0.9 0.00 0.02 0.02 64 1015.5
20260831004704 60 78 0.0 0.9 0.00 0.02 0.02 62 1015.5
20260831004202 60 78 0.0 0.9 0.00 0.02 0.02 62 1015.6
20260831003702 60 78 0.0 1.7 0.00 0.02 0.02 59 1015.7
20260831003202 60 78 0.9 2.6 0.00 0.02 0.02 61 1015.6
20260831002705 60 87 0.9 2.6 0.00 0.02 0.02 59 1015.6
20260831001702 60 74 0.0 0.9 0.00 0.02 0.02 59 1015.6
20260831001202 60 345 0.0 0.9 0.00 0.02 0.02 61 1015.5
20260831000702 60 288 0.0 0.9 0.00 0.02 0.02 62 1015.4
20260831000203 60 232 0.0 0.0 0.00 0.02 0.02 62 1015.4
20260830235702 60 232 0.0 0.0 0.00 0.02 0.02 62 1015.5
20260830235203 60 232 0.0 0.0 0.00 0.02 0.02 63 1015.5
20260830234203 60 232 0.0 0.9 0.00 0.02 0.02 64 1015.5
20260830233202 60 99 0.0 0.9 0.00 0.02 0.02 64 1015.5
20260830232702 59 99 0.0 0.9 0.00 0.02 0.02 63 1015.5
20260830232203 59 98 0.0 0.9 0.00 0.02 0.02 62 1015.5
20260830231702 59 98 0.0 1.7 0.00 0.02 0.02 65 1015.5
20260830231202 58 98 0.0 1.7 0.00 0.02 0.02 65 1015.5
20260830230703 58 82 0.0 0.9 0.00 0.02 0.02 66 1015.5
20260830225703 58 82 0.0 0.9 0.00 0.02 0.02 73 1015.6
20260830225202 58 80 0.0 0.9 0.00 0.02 0.02 72 1015.5
20260830224202 57 104 0.0 0.9 0.00 0.02 0.02 74 1015.5
20260830223706 57 103 0.0 0.9 0.00 0.02 0.02 71 1015.6
20260830223206 58 104 0.0 0.9 0.00 0.02 0.02 71 1015.6
20260830222706 57 104 0.0 0.9 0.00 0.02 0.02 72 1015.5
20260830222202 57 138 0.0 0.9 0.00 0.02 0.02 70 1015.5
20260830221705 57 138 0.0 1.7 0.00 0.02 0.02 70 1015.6
20260830221203 57 119 0.0 1.7 0.00 0.02 0.02 74 1015.6
20260830220703 57 101 0.0 0.9 0.00 0.02 0.02 71 1015.7
20260830220208 57 164 0.0 0.9 0.00 0.02 0.02 71 1015.6
20260830215704 57 164 0.0 0.9 0.00 0.02 0.02 70 1015.6
20260830215202 57 130 0.0 1.7 0.00 0.02 0.02 70 1015.7
20260830214704 57 214 0.0 1.7 0.00 0.02 0.02 70 1015.7
20260830214202 57 92 0.0 1.7 0.00 0.02 0.02 69 1015.9
20260830213703 58 96 1.7 6.1 0.00 0.02 0.02 70 1015.9
20260830213203 57 96 2.6 6.1 0.00 0.02 0.02 66 1015.7
20260830212703 57 80 0.9 5.2 0.00 0.02 0.02 67 1015.7
20260830212204 57 88 0.0 0.9 0.00 0.02 0.02 71 1015.9
20260830211706 56 98 0.0 1.7 0.00 0.02 0.02 71 1015.9
20260830210702 56 86 0.0 1.7 0.00 0.02 0.02 72 1016.0
20260830210203 56 14 0.0 1.7 0.00 0.02 0.02 72 1016.0
20260830205704 56 14 0.0 1.7 0.00 0.02 0.02 71 1016.0
20260830204705 56 125 0.0 1.7 0.00 0.02 0.02 72 1015.9
20260830204202 56 134 0.0 2.6 0.00 0.02 0.02 72 1015.9
20260830203703 56 236 0.9 2.6 0.00 0.02 0.02 74 1015.7
20260830203202 56 109 0.9 2.6 0.00 0.02 0.02 70 1015.6
20260830202702 56 101 0.9 2.6 0.00 0.02 0.02 72 1015.6
20260830202158 56 322 0.0 1.7 0.00 0.02 0.02 74 1015.7
20260830201146 55 98 0.9 2.6 0.00 0.02 0.02 75 1015.7
20260830200640 55 195 0.9 2.6 0.00 0.02 0.02 73 1015.9
20260830200134 55 100 0.9 1.7 0.00 0.02 0.02 74 1015.6
20260830195135 55 114 0.9 3.5 0.00 0.02 0.02 74 1015.7
20260830194633 55 111 0.9 3.5 0.00 0.02 0.02 75 1015.6
20260830194133 55 98 0.0 1.7 0.00 0.02 0.02 76 1015.6
20260830193630 54 225 0.0 1.7 0.00 0.02 0.02 78 1015.6
20260830193134 54 265 0.0 0.9 0.00 0.02 0.02 75 1015.5
20260830192631 54 236 0.0 2.6 0.00 0.02 0.02 77 1015.4
20260830191631 54 125 0.9 1.7 0.00 0.02 0.02 77 1015.4
20260830190631 54 107 0.9 2.6 0.00 0.02 0.02 78 1015.4
20260830185630 53 290 0.0 2.6 0.00 0.02 0.02 76 1015.3
20260830185131 53 123 0.9 5.2 0.00 0.02 0.02 78 1015.3
20260830184631 53 224 0.9 5.2 0.00 0.02 0.02 77 1015.3
20260830184131 53 119 0.9 2.6 0.00 0.02 0.02 80 1015.3
20260830183631 53 41 0.9 2.6 0.00 0.02 0.02 76 1015.3
20260830183131 53 238 0.0 1.7 0.00 0.02 0.02 77 1015.2
20260830182633 53 105 0.0 1.7 0.00 0.02 0.02 81 1015.2
20260830182132 53 118 0.9 2.6 0.00 0.02 0.02 80 1015.2
20260830181631 53 130 0.9 2.6 0.00 0.02 0.02 79 1015.1
20260830181131 53 103 0.9 2.6 0.00 0.02 0.02 79 1015.2
20260830180136 52 217 0.9 3.5 0.00 0.02 0.02 83 1015.2
20260830175631 52 130 0.9 3.5 0.00 0.02 0.02 80 1015.1
20260830175132 52 187 0.0 1.7 0.00 0.02 0.02 83 1015.0
20260830174631 52 111 0.9 3.5 0.01 0.02 0.02 83 1015.0
20260830174131 52 135 0.9 5.2 0.01 0.02 0.02 83 1014.9
20260830173630 52 98 0.9 5.2 0.01 0.02 0.02 81 1014.9
20260830173131 52 214 1.7 4.3 0.01 0.02 0.02 84 1014.9
20260830172631 53 171 2.6 4.3 0.01 0.02 0.02 82 1014.9
20260830172130 52 73 2.6 4.3 0.01 0.02 0.02 82 1014.8
20260830171629 52 104 1.7 3.5 0.01 0.02 0.02 82 1014.9
20260830171130 52 78 1.7 3.5 0.01 0.02 0.02 81 1014.9
20260830170630 52 91 0.9 3.5 0.01 0.02 0.02 82 1014.6
20260830170129 52 114 0.9 2.6 0.01 0.02 0.02 84 1014.8
20260830165629 52 91 0.9 2.6 0.01 0.02 0.02 84 1014.8
20260830165130 52 119 0.9 2.6 0.01 0.02 0.02 85 1014.8
20260830164630 52 106 0.0 1.7 0.00 0.01 0.01 83 1014.6
20260830163628 51 289 0.0 0.9 0.01 0.01 0.01 83 1014.5
20260830163130 51 129 0.0 1.7 0.01 0.01 0.01 87 1014.5
20260830162629 51 207 0.0 1.7 0.01 0.01 0.01 88 1014.6
20260830162131 52 240 0.0 0.0 0.01 0.01 0.01 86 1014.5
20260830161629 52 295 0.0 0.0 0.01 0.01 0.01 85 1014.5
20260830161129 52 295 0.0 0.0 0.01 0.01 0.01 84 1014.5
20260830155624 53 148 0.9 3.5 0.01 0.01 0.01 78 1014.5
20260830155118 53 114 0.9 3.5 0.01 0.01 0.01 77 1014.6
20260830154613 53 257 0.0 0.9 0.01 0.01 0.00 75 1014.6
20260830154106 53 254 0.0 0.9 0.00 0.00 0.00 70 1014.6
20260830153603 54 239 0.0 0.9 0.00 0.00 0.00 73 1014.6
20260830153105 54 239 0.0 0.0 0.00 0.00 0.00 72 1014.6
20260830152606 54 239 0.0 0.9 0.00 0.00 0.00 71 1014.6
20260830152104 54 239 0.0 0.9 0.00 0.00 0.00 73 1014.8
20260830151102 53 227 0.0 0.9 0.00 0.00 0.00 69 1014.6
20260830150606 53 227 0.0 0.9 0.00 0.00 0.00 70 1014.6
20260830150105 53 227 0.0 0.9 0.00 0.00 0.00 67 1014.8
20260830145604 54 227 0.0 1.7 0.00 0.00 0.00 70 1014.8
20260830145103 54 72 0.0 1.7 0.00 0.00 0.00 69 1014.8
20260830144102 54 100 0.0 0.9 0.00 0.00 0.00 66 1014.6
20260830143603 54 39 0.0 0.9 0.00 0.00 0.00 66 1014.8
20260830143107 54 29 0.0 1.7 0.00 0.00 0.00 65 1014.8
20260830142603 53 236 0.0 1.7 0.00 0.00 0.00 69 1014.6
20260830141604 53 226 0.0 1.7 0.00 0.00 0.00 70 1014.6
20260830141103 53 237 0.9 5.2 0.00 0.00 0.00 70 1014.6
20260830140609 53 240 0.9 5.2 0.00 0.00 0.00 71 1014.6
20260830140105 53 74 0.0 1.7 0.00 0.00 0.00 76 1014.6
20260830135606 53 142 0.0 1.7 0.00 0.00 0.00 75 1014.6
20260830135102 53 349 0.0 1.7 0.00 0.00 0.00 71 1014.5
20260830134103 54 26 0.0 1.7 0.00 0.00 0.00 69 1014.5
20260830133605 55 10 0.0 1.7 0.00 0.00 0.00 63 1014.5
20260830132103 55 331 0.0 0.9 0.00 0.00 0.00 61 1014.4
20260830131607 55 331 0.0 1.7 0.00 0.00 0.00 61 1014.4
20260830130604 55 321 0.0 1.7 0.00 0.00 0.00 61 1014.3
20260830125604 55 89 0.0 0.9 0.00 0.00 0.00 61 1014.2
20260830125102 56 98 0.0 0.9 0.00 0.00 0.00 61 1014.1
20260830124605 56 95 0.0 0.9 0.00 0.00 0.00 58 1014.0
20260830124100 56 95 0.0 0.9 0.00 0.00 0.00 58 1013.9
20260830123549 55 146 0.0 0.9 0.00 0.00 0.00 58 1013.8
20260830123049 55 246 0.0 0.9 0.00 0.00 0.00 62 1013.8
20260830122538 56 224 0.0 0.9 0.00 0.00 0.00 60 1013.8
20260830122031 56 223 0.0 0.9 0.00 0.00 0.00 58 1013.8
20260830121528 56 223 0.0 1.7 0.00 0.00 0.00 58 1013.8
20260830121020 56 299 0.0 1.7 0.00 0.00 0.00 58 1013.8
20260830120513 56 231 0.0 0.0 0.00 0.00 0.00 58 1013.8
20260830120015 56 231 0.0 0.0 0.00 0.00 0.00 58 1013.8
20260830115512 56 233 0.0 0.9 0.00 0.00 0.00 58 1013.6
20260830115010 56 194 0.0 0.9 0.00 0.00 0.00 59 1013.4
20260830114512 56 194 0.0 0.9 0.00 0.00 0.00 58 1013.7
20260830113510 56 207 0.0 1.7 0.00 0.00 0.00 58 1013.8
20260830113007 56 232 0.0 0.9 0.00 0.00 0.00 58 1013.7